Location: Bouillancy
(49.1149°N, 2.9308°E)
Time: 08:22:25
(UTC+00:00)

USA 229 DEB - Pass Details

Date: 30 September 2020
Orbit: 971 x 1241 km, 63.4° (Epoch: 14 October)

Event Time Altitude Azimuth Distance (km) Brightness Sun altitude
Rises 20:52:44 0° 316° (NW) 3,910 7.8 -32.2°
Reaches altitude 10° 20:55:25 10° 321° (NW) 2,990 6.9 -32.6°
Enters shadow 21:02:11 54° 30° (NNE) 1,388 4.2 -33.4°
